Home > Weather > Nuremberg > Past weeks

Flag for Germany Weather for the Past 2 Weeks in Nuremberg, Bavaria, Germany

Now
45 °F

Light rain. Broken clouds.


Feels Like: 41 °F
Forecast: 32 / 42 °F
Wind: 6 mph from Southwest

Location: Nuernberg

Current Time: Feb 14, 2016 at 4:14:13 PM

Latest Report: Feb 14, 2016 at 3:20 PM


Visibility: N/A

Pressure: 29.24 "Hg

Humidity: 81%

Dew point: 39 °F

Location of NurembergLocation

Historic Weather in Nuremberg — Graph

°F

Nuremberg Temperature Yesterday

Maximum temperature yesterday: 41 °F (at 3:20 PM)
Minimum temperature yesterday: 28 °F (at 2:50 AM)
Average temperature yesterday: 36 °F

High & Low Weather Summary for the Past Weeks

 TemperatureHumidityPressure
High54 °F (Feb 1, 6:50 AM)100% (Jan 31, 10:20 PM)30.36 "Hg (Jan 31, 10:20 PM)
Low28 °F (Feb 13, 2:50 AM)50% (Feb 7, 1:20 PM)29.09 "Hg (Feb 14, 1:50 AM)
Average41 °F83%29.79 "Hg
* Reported Jan 30 2:20 PM — Feb 14 2:50 PM, Nuremberg, Weather by CustomWeather, © 2016

Note: Actual official high and low records may vary slightly from our data, if they occured in-between our weather recording intervals... More about our weather records

Advertising

Nuremberg Weather History for the Previous 24 Hours

 ConditionsComfort  
Time TempWeatherWind HumidityBarometerVisibility
2:50 PM
Sun, Feb 14
45 °FLight rain. Broken clouds.9 mph81%29.21 "HgN/A
2:20 PM45 °FLight rain. Partly sunny.10 mph76%29.21 "HgN/A
1:50 PM46 °FLight rain. Partly sunny.5 mph71%29.21 "HgN/A
1:20 PM46 °FPartly sunny.9 mph66%29.21 "HgN/A
12:50 PM46 °FPartly sunny.6 mph71%29.18 "HgN/A
12:20 PM46 °FBroken clouds.9 mph71%29.18 "HgN/A
11:50 AM46 °FBroken clouds.10 mph71%29.18 "HgN/A
11:20 AM46 °FPartly sunny.9 mph71%29.18 "HgN/A
10:50 AM46 °FScattered clouds.9 mph71%29.18 "HgN/A
10:20 AM46 °FPassing clouds.3 mph76%29.18 "HgN/A
9:50 AM45 °FPassing clouds.3 mph81%29.18 "HgN/A
9:20 AM43 °FPassing clouds.3 mph87%29.15 "HgN/A
8:50 AM43 °FBroken clouds.3 mph87%29.18 "HgN/A
8:20 AM41 °FPassing clouds.5 mph87%29.15 "HgN/A
7:50 AM41 °FPassing clouds.5 mph87%29.15 "HgN/A
7:20 AM41 °FPartly cloudy.7 mph87%29.15 "HgN/A
6:50 AM43 °FPassing clouds.8 mph87%29.15 "HgN/A
6:20 AM43 °FPartly cloudy.7 mph87%29.12 "HgN/A
5:50 AM43 °FLight rain. Partly cloudy.14 mph87%29.12 "HgN/A
5:20 AM43 °FLight rain. Passing clouds.12 mph87%29.12 "HgN/A
4:50 AM43 °FPassing clouds.9 mph87%29.12 "HgN/A
4:20 AM43 °FLight rain. Passing clouds.10 mph87%29.12 "HgN/A
3:50 AM43 °FLight rain. Passing clouds.8 mph87%29.09 "HgN/A
3:20 AM43 °FLight rain. Passing clouds.8 mph87%29.12 "HgN/A
2:20 AM43 °FLight rain. Mostly cloudy.7 mph87%29.09 "HgN/A
1:50 AM41 °FLight rain. Mostly cloudy.7 mph93%29.09 "HgN/A
1:20 AM41 °FLight rain. Passing clouds.6 mph93%29.12 "HgN/A
12:50 AM41 °FLight rain. Passing clouds.7 mph93%29.12 "HgN/A
12:20 AM41 °FLight rain. Passing clouds.8 mph93%29.12 "HgN/A
11:50 PM
Sat, Feb 13
41 °FLight rain. Mostly cloudy.8 mph93%29.12 "HgN/A
11:20 PM41 °FRain. Mostly cloudy.6 mph93%29.12 "HgN/A
10:50 PM41 °FPartly cloudy.8 mph93%29.12 "HgN/A
10:20 PM39 °FPartly cloudy.9 mph93%29.12 "HgN/A
9:50 PM39 °FPartly cloudy.9 mph93%29.15 "HgN/A
9:20 PM39 °FLight rain. Partly cloudy.10 mph93%29.15 "Hg4 mi
8:50 PM39 °FLight rain. Partly cloudy.9 mph93%29.15 "Hg2 mi
8:20 PM39 °FLight rain. Passing clouds.7 mph93%29.18 "Hg5 mi
7:50 PM37 °FLight rain. Overcast.8 mph100%29.18 "Hg5 mi
7:20 PM39 °FLight rain. Passing clouds.9 mph93%29.18 "Hg5 mi
6:50 PM39 °FLight rain. Passing clouds.7 mph93%29.18 "Hg6 mi
6:20 PM39 °FMostly cloudy.8 mph87%29.18 "HgN/A
5:50 PM39 °FLight rain. Partly cloudy.7 mph87%29.21 "HgN/A
5:20 PM39 °FLight rain. Mostly cloudy.8 mph87%29.21 "HgN/A
4:50 PM39 °FMore clouds than sun.9 mph87%29.21 "HgN/A
4:20 PM39 °FPartly sunny.8 mph87%29.21 "HgN/A
Weather by CustomWeather, © 2016

See weather overviewHow to use our weather pages